Погода в Чистополе

Россия / Республика Татарстан     55°22′20″N   50°38′36″E
темп.,
°C
ветер,
м/с
пор.,
м/с
влажн.,
%
обл.,
%
осадки,
мм/ч
давл.,
гПа
погр.,
м
8 марта, пн
пн800:00−8ю81593100 0.7 1001738
03:00−6ю81692100 1.5 997806
06:00−5ююз91594100 1.1 993870
09:00−5зюз101588100 1.6 994854
12:00−6зюз8138051 0.0 997829
15:00−5зюз7118660 0.0 1000709
18:00−8юз339661 0.1 100054
21:00−7вюв119781 4.3 100033
9 марта, вт
вт900:00−8сз4695100 1.4 1001225
03:00−14з479461 1.4 1005113
06:00−16з449725 0.0 100765
09:00−13зюз469545 0.0 1009216
12:00−11з239185 0.0 1010250
15:00−11зсз229492 0.0 1010184
18:00−15сз229697 0.0 101020
21:00−16ссз229897 0.0 101120
10 марта, ср
ср1000:00−15ссз3397100 0.0 101062
03:00−15ссз4796100 0.1 1010236
06:00−17ссз5996100 0.3 1011288
09:00−18ссз6895100 0.4 1013397
12:00−18сз6894100 0.2 1015456
15:00−19сз6993100 0.3 1016442
18:00−22сз5109498 0.0 1018220
21:00−25сз479465 0.0 1020128
11 марта, чт
чт1100:00−26сз47980 0.0 102092
03:00−27зсз47993 0.0 102294
06:00−27зсз47997 0.0 102399
09:00−23зсз589727 0.0 1024236
12:00−19з589695 0.0 1023325
15:00−16зсз589497 0.1 1023425
18:00−16з479795 0.1 1024155
21:00−14з479689 0.1 1026159
12 марта, пт
пт1200:00−14зсз3495100 0.0 102785
03:00−17сз449472 0.0 102851
06:00−18сз34930 0.0 103029
09:00−15зсз34890 0.0 1032128
12:00−12зсз34860 0.0 1032194
15:00−11з35890 0.0 1032181
18:00−15зюз33870 0.0 103221
21:00−16юз33810 0.0 103320